Tracking 20040 objects as of 19-Nov-2019
Live streaming from Space Station
objects crossing your sky now

COSMOS 2275 (GLONASS)

Track COSMOS 2275 (GLONASS) now!
COSMOS 2275 (GLONASS) is classified as:


NORAD ID: 23045
Int'l Code: 1994-021C
Perigee: 19,072.9 km
Apogee: 19,201.2 km
Inclination: 64.7 °
Period: 675.7 minutes
Semi major axis: 25508 km
RCS: 3.4477 m2 (large)
Launch date: April 11, 1994
Source: Commonwealth of Independent States (former USSR) (CIS)
Launch site: TYURATAM MISSILE AND SPACE COMPLEX (TTMTR)
aabbcc
Your satellite tracking list
Your tracking list is empty




NASA's NSSDC Master Catalog

Two Line Element Set (TLE):
1 23045U 94021C   19321.32180164 -.00000050  00000-0  00000+0 0  9996
2 23045  64.7401  24.7374 0025157  38.2720 339.1641  2.13101838199279
Source of the keplerian elements: AFSPC